This is the latest recevied weather packets stored in our database for station/object 4S6DRJ-13. If no packets are shown the sender has not sent any weather packets the latest 10 day(s).
| Time | Temp. | Humidity | Pressure | Rain* | Wind** | Luminosity | Snow |
|---|---|---|---|---|---|---|---|
| 1788364406 | 27.78° C | 85% | 1010.9 hPa | 0 mm | 1.34 m/s, 232° | 0 W/m² | - |
| 1788364344 | 27.78° C | 85% | 1010.9 hPa | 0 mm | 1.79 m/s, 220° | 0 W/m² | - |
| 1788364283 | 27.78° C | 85% | 1010.9 hPa | 0 mm | 1.79 m/s, 240° | 0 W/m² | - |
| 1788364222 | 27.78° C | 85% | 1010.8 hPa | 0 mm | 0.89 m/s, 60° | 0 W/m² | - |
| 1788364161 | 27.78° C | 85% | 1010.8 hPa | 0 mm | 1.79 m/s, 225° | 0 W/m² | - |
| 1788364100 | 27.78° C | 85% | 1010.9 hPa | 0 mm | 1.34 m/s, 214° | 0 W/m² | - |
| 1788364039 | 27.78° C | 85% | 1010.7 hPa | 0 mm | 1.34 m/s, 192° | 0 W/m² | - |
| 1788363978 | 27.78° C | 85% | 1010.9 hPa | 0 mm | 0.89 m/s, 226° | 0 W/m² | - |
| 1788363917 | 27.78° C | 85% | 1010.7 hPa | 0 mm | 0.89 m/s, 243° | 0 W/m² | - |
| 1788363856 | 27.78° C | 85% | 1010.8 hPa | 0 mm | 0.89 m/s, 197° | 0 W/m² | - |
| 1788363795 | 27.78° C | 85% | 1010.8 hPa | 0 mm | 0.45 m/s, 184° | 0 W/m² | - |
| 1788363734 | 27.78° C | 85% | 1010.8 hPa | 0 mm | 0 m/s | 0 W/m² | - |
| 1788363673 | 27.78° C | 85% | 1010.8 hPa | 0 mm | 0.89 m/s, 209° | 0 W/m² | - |
| 1788363612 | 27.78° C | 85% | 1010.8 hPa | 0 mm | 0.45 m/s, 239° | 0 W/m² | - |
| 1788363551 | 27.78° C | 85% | 1010.8 hPa | 0 mm | 0.45 m/s, 219° | 0 W/m² | - |
| 1788363490 | 27.78° C | 85% | 1010.8 hPa | 0 mm | 0.45 m/s, 222° | 0 W/m² | - |
| 1788363429 | 27.78° C | 85% | 1010.6 hPa | 0 mm | 0.89 m/s, 238° | 0 W/m² | - |
| 1788363368 | 27.78° C | 85% | 1010.6 hPa | 0 mm | 1.79 m/s, 262° | 0 W/m² | - |
| 1788363307 | 27.78° C | 85% | 1010.7 hPa | 0 mm | 0.89 m/s, 220° | 0 W/m² | - |
| 1788363251 | 27.78° C | 85% | 1010.4 hPa | 0 mm | 0.45 m/s, 249° | 0 W/m² | - |
| 1788363184 | 27.78° C | 85% | 1010.6 hPa | 0 mm | 1.34 m/s, 202° | 0 W/m² | - |
| 1788363123 | 27.78° C | 85% | 1010.5 hPa | 0 mm | 1.34 m/s, 204° | 0 W/m² | - |
| 1788363062 | 27.78° C | 86% | 1010.5 hPa | 0 mm | 1.34 m/s, 143° | 0 W/m² | - |
| 1788363001 | 27.78° C | 86% | 1010.4 hPa | 0 mm | 1.79 m/s, 212° | 0 W/m² | - |
| 1788362940 | 27.78° C | 86% | 1010.5 hPa | 0 mm | 1.34 m/s, 237° | 0 W/m² | - |
* Rain latest hour (hover to see other rain measurements)
** Current wind speed in m/s (hover to see current wind gust speed)